Location: Peterborough
(44.3091°N, 78.3197°W)
Time: 03:28:29
(UTC-04:00)

S-56A Canister/Altair - Pass Details

Date: 26 March 2023
Orbit: 639 x 2492 km, 38.9° (Epoch: 08 June)

Event Time Altitude Azimuth Distance (km) Brightness Sun altitude
Rises 04:12:08 0° 279° (W) 6,159 - -29.6°
Reaches altitude 10° 04:21:26 10° 248° (WSW) 4,935 - -28.3°
Maximum altitude 04:23:59 11° 238° (WSW) 4,775 - -27.9°
Drops below altitude 10° 04:26:26 10° 227° (SW) 4,718 - -27.6°
Sets 04:34:25 0° 194° (SSW) 5,231 - -26.4°
